Find Starlink 4693

NORAD ID: 53605 Int'l Des: 2022-104 Owner: SPXS Country: US Constellation: starlink operational
LEOCIRCULAR

リアルタイム位置

3D地球を読み込み中...

Starlink 4693について

説明を読み込み中...

次回通過

Passes for default location (London). Set your location on the main map for personalized predictions.

高度履歴

Loading altitude history...

軌道要素

1 53605U 22104T 26130.16668980 .00761083 00000-0 85081-2 0 9993
2 53605 53.2167 316.6628 0000785 74.3451 116.3353 15.60071343 5862
Epoch: May 10, 2026 • Age: 11 hours

現在のステータス

高度 403.1 km
速度 7.67 km/s
衛星直下点 -49.52°S, 157.68°E
打ち上げ日 Aug 28, 2022
運用期間 3.6 years
タイプ internet

技術仕様

分類 Payload
質量 300.00 kg
乾燥質量 290.00 kg
総質量 300.00 kg
長さ 0.20 m
直径 2.80 m
スパン 9.00 m
形状 Box + pan
製造者 SPXS
バスタイプ Starlink
フェーズステータス In Orbit
所有者/国 SPXS/US

Most Searched